Regional Weather Roundup
Issued by NWS

Home | Current Version | Previous Version | Graphics & Text | Print | Product List | Glossary On
Versions: 1 2 3 4 5 6 7 8 9 10 11 12 13 14 15 16 17 18 19 20 21 22 23 24 25 26 27 28 29 30 31 32 33 34 35 36 37 38 39 40 41 42 43 44 45 46 47 48 49 50
094
ASUS43 KLSX 190807
RWRMO

WEATHER SUMMARY FOR MISSOURI
NATIONAL WEATHER SERVICE SPRINGFIELD MO
200 AM CST THU JAN 19 2017

NOTE: "FAIR" INDICATES FEW OR NO CLOUDS BELOW 12,000 FEET WITH NO
       SIGNIFICANT WEATHER AND/OR OBSTRUCTIONS TO VISIBILITY.
       CURRENT SKY AND/OR WEATHER CONDITIONS ARE NOT AVAILABLE FOR
       CHILLICOTHE AND FARMINGTON.

MOZ001>031-035>038-043-044-053-054-190900-
...NORTHERN AND WESTERN MISSOURI...

CITY           SKY/WX    TMP DP  RH WIND       PRES   REMARKS
KANSAS CTY INT CLOUDY    43  37  79 SE6       29.91F
KANSAS C DTWN  CLOUDY    45  39  79 E3        29.91F
LEE`S SUMMIT   CLOUDY    42  38  85 SE6       29.92F
ST JOSEPH      CLOUDY    38  37  97 CALM      29.91F
CHILLICOTHE      N/A     36  35  96 CALM      29.95F
KIRKSVILLE     CLOUDY    36  34  92 SE6       29.95F

$$
MOZ066>068-077>081-088>096-101>105-190900-
...SOUTHWEST MISSOURI...

CITY           SKY/WX    TMP DP  RH WIND       PRES   REMARKS
SPRINGFIELD    CLOUDY    43  42  97 S12       29.92S
JOPLIN         CLOUDY    47  45  93 S6        29.92F
BRANSON        CLOUDY    41  41 100 E5        29.95F FOG

$$
MOZ032>034-039>042-045>050-055>058-069>072-190900-
...CENTRAL MISSOURI...

CITY           SKY/WX    TMP DP  RH WIND       PRES   REMARKS
COLUMBIA       LGT RAIN  43  42  97 SE5       29.96F FOG
JEFFERSON CITY CLOUDY    44  42  93 E6        29.98F
ROLLA          LGT RAIN  42  41  96 SE7       29.95F FOG
SEDALIA        CLOUDY    48  43  82 SE6       29.95F
WHITEMAN AFB   CLOUDY    46  46 100 SE3       29.92S
WARRENSBURG    CLOUDY    43  37  81 CALM      29.94S
OSAGE BEACH    CLOUDY    43  42  97 SE3       29.96F

$$
MOZ051-052-059>065-190900-
...EAST CENTRAL MISSOURI...

CITY           SKY/WX    TMP DP  RH WIND       PRES   REMARKS
ST LOUIS INTL  CLOUDY    44  38  79 SE6       30.02F
SPIRIT OF STL  CLOUDY    43  39  86 VRB3      30.02S
ST CHARLES     CLOUDY    41  40  96 E7        30.02F

$$
MOZ072>076-082>087-097>100-106>115-190900-
...SOUTH CENTRAL AND SOUTHEAST MISSOURI...

CITY           SKY/WX    TMP DP  RH WIND       PRES   REMARKS
CAPE GIRARDEAU CLOUDY    44  41  89 NE5       30.03S FOG
FARMINGTON     LGT RAIN  41  40  96 CALM      30.01F FOG
POPLAR BLUFF   CLOUDY    44  43  96 NE3       30.02S FOG
WEST PLAINS    FOG       41  41 100 SE5       29.99F VSB 3/4

$$



USA.gov is the U.S. government's official web portal to all federal, state and local government web resources and services.